Regional Weather Roundup
Issued by NWS

Home | Current Version | Previous Version | Graphics & Text | Print | Product List | Glossary On
Versions: 1 2 3 4 5 6 7 8 9 10 11 12 13 14 15 16 17 18 19 20 21 22 23 24 25 26 27 28 29 30 31 32 33 34 35 36 37 38 39 40 41 42 43 44 45 46 47 48 49 50
000
ASUS45 KPSR 262100
RWRAZ

ARIZONA REGIONAL HOURLY WEATHER ROUNDUP
NATIONAL WEATHER SERVICE PHOENIX AZ
200 PM MST THU MAR 26 2015

NOTE: FAIR INDICATES FEW OR NO CLOUDS BELOW 12,000 FEET WITH NO
SIGNIFICANT WEATHER AND/OR OBSTRUCTIONS TO VISIBILITY.

AZZ001>003-036-262200-
NORTHWEST ARIZONA

CITY           SKY/WX    TMP DP  RH WIND       PRES   REMARKS
KINGMAN        FAIR      76  18  11 MISG      30.21F
$$

AZZ004>008-015-016-018-262200-
NORTH CENTRAL ARIZONA

CITY           SKY/WX    TMP DP  RH WIND       PRES   REMARKS
GRAND CANYON   FAIR      62  14  15 NE8G20    30.34F
WILLIAMS       FAIR      66  18  15 W8G15     30.38F
PRESCOTT       FAIR      70  12  10 VRB5      30.25F
FLAGSTAFF      NOT AVBL
PAYSON         FAIR      70  14  11 W8        30.25F
PAGE           FAIR      64  13  13 VRB3      30.29F
$$

AZZ009>014-017-262200-
NORTHEAST ARIZONA

CITY           SKY/WX    TMP DP  RH WIND       PRES   REMARKS
WINSLOW        NOT AVBL
SAINT JOHNS    FAIR      62   8  12 NW6       30.27F
WINDOW ROCK    FAIR      65   8  10 MISG      30.27F
$$

AZZ023-262200-
GREATER PHOENIX AREA

CITY           SKY/WX    TMP DP  RH WIND       PRES   REMARKS
PHOENIX        FAIR      86  15   7 VRB3      30.05F
GLENDALE       MOSUNNY   84  18   8 VRB5      30.18R
DEER VALLEY    FAIR      84  13   7 CALM      30.07F
SCOTTSDALE     FAIR      85  11   6 CALM      30.08F
MESA-FALCON    MOSUNNY   84   9   6 MISG      30.07F
MESA-GATEWAY   MOSUNNY   84  16   8 W5        30.08F
CHANDLER       MOSUNNY   86  14   7 VRB6      30.06F
$$

AZZ027-028-262200-
SOUTHWEST MARICOPA COUNTY AND PINAL COUNTY

CITY           SKY/WX    TMP DP  RH WIND       PRES   REMARKS
CASA GRANDE    FAIR      86  25  10 N7        30.05F
$$

AZZ503-504-507>509-262200-
SOUTHEAST ARIZONA

CITY           SKY/WX    TMP DP  RH WIND       PRES   REMARKS
TUCSON         FAIR      84  21  10 NW10      30.11F
RYAN FIELD       N/A     84  28  13 NE3       30.10F
NOGALES        FAIR      83  24  11 N9        30.14F
SAFFORD        FAIR      75  18  11 SE9       30.15F
$$

AZZ020-021-025-026-031-262200-
SOUTHWEST ARIZONA

CITY           SKY/WX    TMP DP  RH WIND       PRES   REMARKS
YUMA           FAIR      93  26   9 VRB6      30.02F
$$

CAZ031-033-041-043-047-048-061-262200-
SOUTHERN CALIFORNIA

CITY           SKY/WX    TMP DP  RH WIND       PRES   REMARKS
DOWNTOWN L.A.  FAIR      92  30  11 CALM      30.02F
L.A. AIRPORT   FAIR      78  50  37 W14       30.04F
SAN DIEGO      FAIR      77  49  37 NW9       30.04F
BURBANK        FAIR      89  30  12 SW5       30.05F
ONTARIO        FAIR      90  25   9 NE10G20   30.05F
RIVERSIDE      FAIR      90  24   9 E7        30.05F
PALM SPRINGS   FAIR      92  22   8 VRB7      30.06F
EL CENTRO NAS  FAIR      91  21   8 N10G17    30.03F
IMPERIAL       FAIR      90  21   8 N10       30.03F
BLYTHE         FAIR      87  25  10 E14       30.06F
$$

NVZ020-UTZ003-262200-
SOUTHERN NEVADA-UTAH

CITY           SKY/WX    TMP DP  RH WIND       PRES   REMARKS
LAS VEGAS      NOT AVBL
SALT LAKE CITY FAIR      59  26  28 NW6       30.38S
$$

NMZ009-TXZ055-262200-
NEW MEXICO-WEST TEXAS

CITY           SKY/WX    TMP DP  RH WIND       PRES   REMARKS
ALBUQUERQUE    MOSUNNY   59  20  22 NE3       30.27F
EL PASO        FAIR      65  24  21 NE5       30.24F
$$


........................KEY........................
SKY/WX - SKY CONDITION/WEATHER
TMP    - TEMPERATURE IN FAHRENHEIT
DP     - DEW POINT IN FAHRENHEIT
RH     - RELATIVE HUMIDITY IN PERCENT
WIND   - DIRECTION AND SPEED IN MILES PER HOUR (MPH)
VRB    - VARIABLE WIND DIRECTION
PRES   - MEAN SEA LEVEL PRESSURE IN INCHES OF MERCURY
         F - FALLING PRESSURE   R - RISING PRESSURE
         S - STEADY PRESSURE
VSB    - VISIBILITY IN MILES
HX     - HEAT INDEX IN FAHRENHEIT
WCI    - WIND CHILL INDEX IN FAHRENHEIT
TC     - TEMPERATURE IN CELSIUS WHICH IS ALSO KNOWN AS
         TEMPERATURE IN CENTIGRADE
AFB    - AIR FORCE BASE
         LUKE AFB IS LUKE AIR FORCE BASE
         DAVIS-MONTHAN IS DAVIS-MONTHAN AIR FORCE BASE
NAS    - NAVAL AIR STATION
         EL CENTRO NAS IS EL CENTRO NAVAL AIR STATION
N/A    - NOT AVAILABLE



USA.gov is the U.S. government's official web portal to all federal, state and local government web resources and services.